Weather History for Waskish, MN

Change the Weather History Date:

Tuesday, February 26, 2013

  Actual Average (KBDE) Record (KBDE)
Temperature  
Mean Temperature 19 °F -  
Max Temperature 35 °F 31 °F 59 °F (1958)
Min Temperature 3 °F 9 °F -31 °F (1934)
Degree Days  
Heating Degree Days 46    
Moisture  
Dew Point 15 °F    
Average Humidity 81    
Maximum Humidity 100    
Minimum Humidity 60    
Precipitation  
Precipitation 0.00 in - - ()
Sea Level Pressure  
Sea Level Pressure 30.01 in    
Wind  
Wind Speed 1 mph (West)    
Max Wind Speed 7 mph    
Max Gust Speed -    
Visibility 9 miles    
Events Fog    
Averages and records for this station are not official NWS values.
T = Trace of Precipitation, MM = Missing Value Source: NWS Daily Summary

Daily Weather History Graph

Daily Weather History Graph

Search for Another Location

Airport:

Trip Planner

Search our weather history database for the weather conditions in past years. The results will help you decide how hot, cold, wet, or windy it might be!

Date:

Astronomy

Feb. 26, 2013 Rise Set
Actual Time 7:04 AM CST 5:58 PM CST
Civil Twilight 6:33 AM CST 6:29 PM CST
Nautical Twilight 5:57 AM CST 7:05 PM CST
Astronomical Twilight 5:21 AM CST 7:41 PM CST
Moon 7:26 PM CST (2/26) 6:59 AM CST (2/26)
Length of Visible Light 11h 56m
Length of Day
10h 53m
Full, 99% of the Moon is Illuminated
Feb 26
Full
Mar 4
Last Quarter
Mar 11
New
Mar 19
First Quarter
Mar 27
Full

Hourly Weather History & Observations

Time (CST) Temp. Windchill Dew Point Humidity Pressure Visibility Wind Dir Wind Speed Gust Speed Precip Events Conditions
12:11 AM 21.2 °F 16.4 °F 19.4 °F 93% 29.98 in 10.0 mi South 3.5 mph - N/A   Clear
12:31 AM 19.4 °F - 17.6 °F 93% 29.98 in 10.0 mi Calm Calm - N/A   Clear
12:52 AM 19.4 °F - 17.6 °F 93% 29.98 in 10.0 mi Calm Calm - N/A   Clear
1:11 AM 17.6 °F - 15.8 °F 93% 29.98 in 10.0 mi Calm Calm - N/A   Clear
1:31 AM 17.6 °F - 15.8 °F 93% 29.99 in 7.0 mi Calm Calm - N/A   Clear
1:52 AM 12.2 °F - 10.4 °F 92% 29.99 in 5.0 mi Calm Calm - N/A   Clear
2:11 AM 12.2 °F - 10.4 °F 92% 30.00 in 3.0 mi Calm Calm - N/A   Clear
2:31 AM 8.6 °F - 6.8 °F 92% 30.01 in 0.5 mi Calm Calm - N/A Fog Light Freezing Fog
2:52 AM 10.4 °F - 8.6 °F 92% 30.01 in 5.0 mi Calm Calm - N/A   Clear
3:11 AM 10.4 °F - 10.4 °F 100% 30.00 in 5.0 mi Calm Calm - N/A   Clear
3:31 AM 12.2 °F - 10.4 °F 92% 30.00 in 4.0 mi Calm Calm - N/A   Clear
3:52 AM 6.8 °F - 5.0 °F 92% 30.00 in 3.0 mi Calm Calm - N/A   Clear
4:11 AM 6.8 °F - 3.2 °F 85% 30.00 in 7.0 mi Calm Calm - N/A   Clear
4:31 AM 5.0 °F - 1.4 °F 85% 30.00 in 10.0 mi Calm Calm - N/A   Clear
4:52 AM 3.2 °F - 1.4 °F 92% 30.01 in 10.0 mi Calm Calm - N/A   Clear
5:11 AM 3.2 °F - 1.4 °F 92% 30.01 in 10.0 mi Calm Calm - N/A   Clear
5:31 AM 3.2 °F - 1.4 °F 92% 30.02 in 10.0 mi Calm Calm - N/A   Clear
5:52 AM 3.2 °F - 1.4 °F 92% 30.03 in 10.0 mi Calm Calm - N/A   Clear
6:11 AM 8.6 °F - 6.8 °F 92% 30.03 in 7.0 mi Calm Calm - N/A   Clear
6:32 AM 12.2 °F - 12.2 °F 100% 30.03 in 7.0 mi Calm Calm - N/A   Clear
6:51 AM 15.8 °F - 15.8 °F 100% 30.02 in 7.0 mi Calm Calm - N/A   Clear
7:11 AM 5.0 °F - 1.4 °F 85% 30.01 in 7.0 mi Calm Calm - N/A   Clear
7:32 AM 5.0 °F - 1.4 °F 85% 30.01 in 10.0 mi Calm Calm - N/A   Clear
7:51 AM 6.8 °F - 5.0 °F 92% 30.01 in 10.0 mi Calm Calm - N/A   Clear
8:11 AM 8.6 °F - 6.8 °F 92% 30.00 in 7.0 mi Calm Calm - N/A   Clear
8:32 AM 12.2 °F - 12.2 °F 100% 30.01 in 7.0 mi Calm Calm - N/A   Clear
8:51 AM 17.6 °F - 17.6 °F 100% 30.01 in 7.0 mi Calm Calm - N/A   Clear
9:11 AM 23.0 °F - 21.2 °F 93% 30.01 in 7.0 mi Calm Calm - N/A   Clear
9:32 AM 26.6 °F - 24.8 °F 93% 30.01 in 10.0 mi Calm Calm - N/A   Clear
9:51 AM 28.4 °F - 26.6 °F 93% 30.02 in 10.0 mi Calm Calm - N/A   Clear
10:11 AM 33.8 °F - 26.6 °F 75% 30.01 in 10.0 mi Calm Calm - N/A   Clear
10:32 AM 35.6 °F - 24.8 °F 65% 30.01 in 10.0 mi Calm Calm - N/A   Clear
10:51 AM 33.8 °F - 21.2 °F 60% 30.01 in 10.0 mi Calm Calm - N/A   Clear
11:11 AM 32.0 °F - 21.2 °F 64% 30.01 in 10.0 mi Calm Calm - N/A   Clear
11:32 AM 32.0 °F 28.7 °F 21.2 °F 64% 30.01 in 10.0 mi WNW 3.5 mph - N/A   Clear
11:51 AM 32.0 °F 28.7 °F 21.2 °F 64% 30.02 in 10.0 mi West 3.5 mph - N/A   Clear
12:11 PM 33.8 °F 30.8 °F 23.0 °F 65% 30.01 in 10.0 mi West 3.5 mph - N/A   Clear
12:32 PM 33.8 °F 28.6 °F 23.0 °F 65% 30.01 in 10.0 mi West 5.8 mph - N/A   Clear
12:51 PM 35.6 °F 32.8 °F 24.8 °F 65% 30.01 in 10.0 mi WSW 3.5 mph - N/A   Clear
1:11 PM 33.8 °F 29.6 °F 24.8 °F 70% 30.01 in 10.0 mi WSW 4.6 mph - N/A   Clear
1:32 PM 33.8 °F 28.6 °F 24.8 °F 70% 30.01 in 10.0 mi WSW 5.8 mph - N/A   Clear
1:51 PM 33.8 °F 28.6 °F 24.8 °F 70% 30.01 in 10.0 mi West 5.8 mph - N/A   Clear
2:11 PM 33.8 °F 29.6 °F 24.8 °F 70% 30.01 in 10.0 mi West 4.6 mph - N/A   Clear
2:32 PM 35.6 °F 31.7 °F 24.8 °F 65% 30.01 in 10.0 mi West 4.6 mph - N/A   Clear
2:51 PM 35.6 °F 29.9 °F 24.8 °F 65% 30.01 in 10.0 mi West 6.9 mph - N/A   Clear
3:11 PM 35.6 °F 30.7 °F 23.0 °F 60% 30.01 in 10.0 mi West 5.8 mph - N/A   Clear
3:31 PM 33.8 °F 30.8 °F 23.0 °F 65% 30.01 in 10.0 mi West 3.5 mph - N/A   Clear
3:51 PM 33.8 °F 28.6 °F 21.2 °F 60% 30.01 in 10.0 mi WSW 5.8 mph - N/A   Clear
4:11 PM 33.8 °F 27.7 °F 21.2 °F 60% 30.01 in 10.0 mi West 6.9 mph - N/A   Clear
4:31 PM 30.2 °F 25.4 °F 21.2 °F 69% 30.01 in 10.0 mi West 4.6 mph - N/A   Clear
4:51 PM 30.2 °F 25.4 °F 19.4 °F 64% 30.01 in 10.0 mi West 4.6 mph - N/A   Clear
5:11 PM 30.2 °F 26.7 °F 17.6 °F 60% 30.01 in 10.0 mi West 3.5 mph - N/A   Clear
5:31 PM 26.6 °F - 17.6 °F 69% 30.01 in 10.0 mi Calm Calm - N/A   Clear
5:51 PM 26.6 °F - 17.6 °F 69% 30.01 in 10.0 mi Calm Calm - N/A   Clear
6:12 PM 26.6 °F - 17.6 °F 69% 30.01 in 10.0 mi Calm Calm - N/A   Clear
6:31 PM 24.8 °F - 17.6 °F 74% 30.02 in 10.0 mi Calm Calm - N/A   Clear
6:51 PM 23.0 °F - 17.6 °F 80% 30.02 in 10.0 mi Calm Calm - N/A   Clear
7:12 PM 21.2 °F - 15.8 °F 80% 30.02 in 10.0 mi Calm Calm - N/A   Clear
7:31 PM 19.4 °F - 15.8 °F 86% 30.03 in 10.0 mi Calm Calm - N/A   Clear
7:52 PM 19.4 °F - 15.8 °F 86% 30.03 in 10.0 mi Calm Calm - N/A   Clear
8:11 PM 19.4 °F - 15.8 °F 86% 30.03 in 10.0 mi Calm Calm - N/A   Clear
8:31 PM 19.4 °F - 17.6 °F 93% 30.03 in 10.0 mi Calm Calm - N/A   Clear
8:51 PM 21.2 °F - 17.6 °F 86% 30.03 in 10.0 mi Calm Calm - N/A   Clear
9:11 PM 17.6 °F - 12.2 °F 79% 30.03 in 10.0 mi Calm Calm - N/A   Clear
9:31 PM 21.2 °F - 15.8 °F 80% 30.03 in 10.0 mi Calm Calm - N/A   Clear
9:51 PM 17.6 °F - 12.2 °F 79% 30.03 in 10.0 mi Calm Calm - N/A   Clear
10:11 PM 15.8 °F - 12.2 °F 86% 30.03 in 10.0 mi Calm Calm - N/A   Clear
10:31 PM 15.8 °F - 12.2 °F 86% 30.03 in 10.0 mi Calm Calm - N/A   Clear
10:52 PM 15.8 °F - 12.2 °F 86% 30.03 in 10.0 mi Calm Calm - N/A   Clear
11:11 PM 15.8 °F - 14.0 °F 93% 30.03 in 10.0 mi Calm Calm - N/A   Clear
11:31 PM 14.0 °F - 10.4 °F 86% 30.04 in 10.0 mi Calm Calm - N/A   Clear
11:52 PM 12.2 °F - 10.4 °F 92% 30.04 in 10.0 mi Calm Calm - N/A   Clear